TimeEDT,TemperatureF,Dew PointF,Humidity,Sea Level PressureIn,VisibilityMPH,Wind Direction,Wind SpeedMPH,Gust SpeedMPH,PrecipitationIn,Events,Conditions,WindDirDegrees,DateUTC
12:15 AM,70.0,64.8,83,30.20,10.0,South,4.6,-,N/A,,Clear,170,2013-05-29 04:15:00
12:35 AM,67.1,62.2,84,30.20,10.0,South,5.8,-,N/A,,Clear,170,2013-05-29 04:35:00
12:55 AM,67.5,62.8,85,30.20,10.0,Calm,Calm,-,N/A,,Clear,0,2013-05-29 04:55:00
1:15 AM,67.6,63.0,85,30.20,10.0,South,4.6,-,N/A,,Clear,190,2013-05-29 05:15:00
1:35 AM,67.5,63.0,85,30.20,10.0,South,4.6,-,N/A,,Clear,180,2013-05-29 05:35:00
1:55 AM,66.6,62.4,86,30.19,10.0,South,3.5,-,N/A,,Clear,190,2013-05-29 05:55:00
2:15 AM,67.5,63.1,86,30.19,10.0,South,3.5,-,N/A,,Clear,180,2013-05-29 06:15:00
2:35 AM,66.4,62.1,86,30.20,10.0,South,3.5,-,N/A,,Clear,180,2013-05-29 06:35:00
2:55 AM,66.4,62.1,86,30.20,10.0,South,3.5,-,N/A,,Clear,190,2013-05-29 06:55:00
3:15 AM,65.3,61.2,86,30.19,10.0,South,3.5,-,N/A,,Clear,180,2013-05-29 07:15:00
3:35 AM,65.3,61.2,86,30.20,10.0,South,3.5,-,N/A,,Clear,190,2013-05-29 07:35:00
3:55 AM,65.3,61.2,86,30.20,10.0,Calm,Calm,-,N/A,,Clear,0,2013-05-29 07:55:00
4:15 AM,65.3,61.7,88,30.21,10.0,Calm,Calm,-,N/A,,Clear,0,2013-05-29 08:15:00
4:35 AM,65.3,61.7,88,30.21,10.0,South,4.6,-,N/A,,Clear,180,2013-05-29 08:35:00
4:55 AM,65.3,61.7,88,30.21,10.0,Calm,Calm,-,N/A,,Clear,0,2013-05-29 08:55:00
5:15 AM,65.3,61.9,89,30.22,10.0,Calm,Calm,-,N/A,,Clear,0,2013-05-29 09:15:00
5:35 AM,65.3,62.2,90,30.22,7.0,Calm,Calm,-,N/A,,Clear,0,2013-05-29 09:35:00
5:55 AM,65.3,62.6,91,30.22,10.0,Calm,Calm,-,N/A,,Clear,0,2013-05-29 09:55:00
6:15 AM,63.3,60.6,91,30.22,10.0,Calm,Calm,-,N/A,,Clear,0,2013-05-29 10:15:00
6:35 AM,65.3,62.6,91,30.23,10.0,South,3.5,-,N/A,,Clear,170,2013-05-29 10:35:00
6:55 AM,65.3,62.6,91,30.23,10.0,South,4.6,-,N/A,,Clear,170,2013-05-29 10:55:00
7:15 AM,65.3,62.1,89,30.23,10.0,South,3.5,-,N/A,,Clear,180,2013-05-29 11:15:00
7:35 AM,67.5,63.5,87,30.23,10.0,South,3.5,-,N/A,,Clear,190,2013-05-29 11:35:00
7:55 AM,70.0,65.3,85,30.24,10.0,South,3.5,-,N/A,,Clear,170,2013-05-29 11:55:00
8:15 AM,70.0,64.4,82,30.24,10.0,South,4.6,-,N/A,,Clear,180,2013-05-29 12:15:00
8:35 AM,72.5,66.0,80,30.24,10.0,South,3.5,-,N/A,,Clear,180,2013-05-29 12:35:00
8:55 AM,72.5,65.1,78,30.25,10.0,Calm,Calm,-,N/A,,Clear,0,2013-05-29 12:55:00
9:15 AM,75.2,66.0,73,30.24,10.0,Calm,Calm,-,N/A,,Clear,0,2013-05-29 13:15:00
9:35 AM,75.2,64.2,69,30.24,10.0,Calm,Calm,-,N/A,,Clear,0,2013-05-29 13:35:00
9:55 AM,76.3,64.8,67,30.24,10.0,Calm,Calm,-,N/A,,Clear,0,2013-05-29 13:55:00
10:15 AM,76.6,63.9,65,30.24,10.0,South,4.6,-,N/A,,Clear,180,2013-05-29 14:15:00
10:35 AM,77.5,63.0,61,30.24,10.0,South,4.6,-,N/A,,Clear,170,2013-05-29 14:35:00
10:55 AM,78.6,63.9,60,30.24,10.0,South,4.6,-,N/A,,Clear,170,2013-05-29 14:55:00
11:15 AM,80.2,63.3,56,30.24,10.0,Calm,Calm,-,N/A,,Clear,0,2013-05-29 15:15:00
11:35 AM,79.2,60.8,53,30.24,10.0,Calm,Calm,-,N/A,,Clear,0,2013-05-29 15:35:00
11:55 AM,80.6,61.5,52,30.24,10.0,South,5.8,-,N/A,,Clear,180,2013-05-29 15:55:00
12:15 PM,82.6,63.3,52,30.24,10.0,South,4.6,-,N/A,,Clear,170,2013-05-29 16:15:00
12:35 PM,82.6,63.5,52,30.23,10.0,South,5.8,-,N/A,,Clear,180,2013-05-29 16:35:00
12:55 PM,82.6,63.3,52,30.23,10.0,South,10.4,-,N/A,,Clear,190,2013-05-29 16:55:00
1:15 PM,85.1,65.7,52,30.22,10.0,South,8.1,-,N/A,,Clear,180,2013-05-29 17:15:00
1:35 PM,85.1,64.9,51,30.22,10.0,South,8.1,16.1,N/A,,Clear,180,2013-05-29 17:35:00
1:55 PM,85.1,64.6,50,30.21,10.0,South,8.1,-,N/A,,Clear,180,2013-05-29 17:55:00
2:15 PM,85.1,64.9,51,30.21,10.0,South,3.5,-,N/A,,Scattered Clouds,180,2013-05-29 18:15:00
2:35 PM,85.1,64.8,50,30.20,10.0,South,4.6,18.4,N/A,,Clear,180,2013-05-29 18:35:00
2:55 PM,85.1,64.9,51,30.19,10.0,South,4.6,-,N/A,,Clear,190,2013-05-29 18:55:00
3:15 PM,85.1,64.6,50,30.19,10.0,South,6.9,-,N/A,,Clear,180,2013-05-29 19:15:00
3:35 PM,85.1,64.0,49,30.19,10.0,South,6.9,-,N/A,,Scattered Clouds,180,2013-05-29 19:35:00
3:55 PM,85.1,63.1,48,30.19,10.0,South,8.1,16.1,N/A,,Scattered Clouds,180,2013-05-29 19:55:00
4:15 PM,85.1,62.8,47,30.18,10.0,SSE,4.6,16.1,N/A,,Scattered Clouds,160,2013-05-29 20:15:00
4:35 PM,85.1,63.9,49,30.18,10.0,South,4.6,-,N/A,,Clear,180,2013-05-29 20:35:00
4:55 PM,85.1,63.0,47,30.18,10.0,South,8.1,-,N/A,,Scattered Clouds,180,2013-05-29 20:55:00
5:15 PM,85.1,63.7,49,30.18,10.0,South,4.6,-,N/A,,Scattered Clouds,180,2013-05-29 21:15:00
5:35 PM,85.1,63.7,49,30.18,10.0,South,4.6,-,N/A,,Scattered Clouds,190,2013-05-29 21:35:00
5:55 PM,85.1,64.9,51,30.18,10.0,Calm,Calm,-,N/A,,Scattered Clouds,0,2013-05-29 21:55:00
6:15 PM,85.1,66.0,53,30.18,10.0,South,4.6,-,N/A,,Clear,170,2013-05-29 22:15:00
6:35 PM,83.3,66.4,57,30.18,10.0,Calm,Calm,-,N/A,,Clear,0,2013-05-29 22:35:00
6:55 PM,82.6,63.7,53,30.18,10.0,Calm,Calm,-,N/A,,Clear,0,2013-05-29 22:55:00
7:15 PM,80.1,62.1,54,30.18,10.0,Calm,Calm,-,N/A,,Clear,0,2013-05-29 23:15:00
7:35 PM,78.8,62.1,56,30.18,10.0,South,3.5,-,N/A,,Clear,190,2013-05-29 23:35:00
7:55 PM,78.1,62.4,58,30.17,10.0,South,3.5,-,N/A,,Clear,180,2013-05-29 23:55:00
8:15 PM,76.6,62.2,61,30.17,10.0,South,4.6,-,N/A,,Clear,190,2013-05-30 00:15:00
8:35 PM,75.2,62.4,64,30.17,10.0,South,3.5,-,N/A,,Clear,190,2013-05-30 00:35:00
8:55 PM,75.2,64.2,69,30.18,10.0,Calm,Calm,-,N/A,,Clear,0,2013-05-30 00:55:00
9:15 PM,73.8,63.5,70,30.18,10.0,Calm,Calm,-,N/A,,Clear,0,2013-05-30 01:15:00
9:35 PM,72.5,64.0,75,30.19,10.0,South,4.6,-,N/A,,Clear,180,2013-05-30 01:35:00
9:55 PM,70.5,63.9,79,30.19,10.0,South,5.8,-,N/A,,Clear,180,2013-05-30 01:55:00
10:15 PM,72.5,64.6,76,30.20,10.0,South,5.8,-,N/A,,Clear,180,2013-05-30 02:15:00
10:35 PM,72.5,64.2,75,30.21,10.0,South,6.9,-,N/A,,Clear,180,2013-05-30 02:35:00
10:55 PM,72.5,64.6,76,30.21,10.0,South,5.8,-,N/A,,Clear,190,2013-05-30 02:55:00
11:15 PM,72.3,64.6,77,30.22,10.0,South,4.6,-,N/A,,Clear,180,2013-05-30 03:15:00
11:35 PM,70.7,63.1,77,30.22,10.0,South,4.6,-,N/A,,Clear,190,2013-05-30 03:35:00
11:55 PM,70.0,63.1,79,30.22,10.0,South,3.5,-,N/A,,Clear,180,2013-05-30 03:55:00